Regional Weather Roundup
Issued by NWS Midland/Odessa, TX

Skip options and go directly to product.
Home | Oldest Version | Previous Version | Current Version | All | Graphics & Text | Save Text | Print | Product List | Glossary On

Skip product version selection by date and time.   
243
ASUS44 KMAF 232010
RWRMAF
MIDLAND AREA WEATHER ROUNDUP
NATIONAL WEATHER SERVICE MIDLAND TX
300 PM CDT THU OCT 23 2014

...IN SOUTHWEST TEXAS AND SOUTHEAST NEW MEXICO...

CITY           SKY/WX    TMP DP  RH WIND       PRES   REMARKS
ALPINE         SUNNY     75  49  39 CALM      30.24F
ANDREWS        FAIR      75  60  59 SW3       30.12F
ARTESIA        NOT AVBL
BIG SPRING     SUNNY     74  64  69 SW3       30.13F
CARLSBAD       SUNNY     70  60  70 VRB6      30.11F
DRYDEN           N/A     75  61  61 MISG      30.10F
FORT STOCKTON  SUNNY     80  58  46 NW7       30.12F
GUAD PASS      SUNNY     74  53  48 W17G24    30.24F
HOBBS          SUNNY     75  54  46 S6        30.14F
MARFA          MOSUNNY   75  48  38 SW9       30.23F
MIDLAND AIRPK  SUNNY     78  60  54 CALM      30.12F
MIDLAND INTL   SUNNY     80  58  46 W6        30.10F
ODESSA         SUNNY     78  58  49 CALM      30.12F
PECOS          SUNNY     74  62  64 NE5       30.10F
PRESIDIO       FAIR      79  59  49 CALM      30.12F
SEMINOLE       SUNNY     74  62  65 S7        30.13F
SNYDER         MOSUNNY   67  61  80 SW6       30.12F
WINK           NOT AVBL
$$
...OTHER STATIONS IN TEXAS...

CITY           SKY/WX    TMP DP  RH WIND       PRES   REMARKS
ABILENE        MOSUNNY   81  59  47 SW12G18   30.08F
AMARILLO       SUNNY     75  57  53 S9        30.09F
AUSTIN         PTSUNNY   80  59  48 CALM      30.08F
BROWNSVILLE    MOSUNNY   83  67  58 N8        30.02F
CORPUS CHRISTI MOSUNNY   82  63  52 NE8       30.06F
DALLAS FTW     MOSUNNY   77  56  48 SE8       30.08F
DEL RIO        MOSUNNY   78  65  63 SE9       30.08F
EL PASO        MOSUNNY   77  49  37 VRB3      30.15F
HOUSTON INT    MOSUNNY   79  54  41 NE13      30.07F
LUBBOCK        MOSUNNY   70  58  65 SW8       30.10F
SAN ANGELO     CLOUDY    76  61  59 SW13      30.11F
SAN ANTONIO    MOSUNNY   82  59  45 VRB3      30.08F
WACO           SUNNY     79  56  45 VRB3      30.09F
WICHITA FALLS  NOT AVBL
$$
...OTHER LOCATIONS IN NEW MEXICO...

CITY           SKY/WX    TMP DP  RH WIND       PRES   REMARKS
ALAMAGORDO     NOT AVBL
ALBUQUERQUE    SUNNY     72  39  30 VRB3      30.23F
CANNON AFB     SUNNY     80  40  23 W16       30.11F
CLOVIS         SUNNY     81  41  24 W15G22    30.13F
HOLLOMAN AFB   MOSUNNY   77  51  39 S7        30.15F
ROSWELL        SUNNY     75  56  51 SE9       30.11F
RUIDOSO        SUNNY     68  43  40 NW14      30.32F
SANTA FE       SUNNY     71  30  21 N9G17     30.26F
TRUTH OR CONSE SUNNY     76  41  28 E6        30.20F
TUCUMCARI      SUNNY     81  39  22 W9        30.08F
$$

USA.gov is the U.S. government's official web portal to all federal, state and local government web resources and services.